Back to catalog

SL-12 DEB

AliveHEO
NORAD 25804·DEBRIS·🇷🇺 Russia

Launched Sep 16, 1987 from Baikonur Cosmodrome

Loading…

Next Passes (next 24 hours)

TLE

FreshSource: Space-Track

Epoch: Sep 13, 2026, 21:08 UTC

1 25804U 87079P   26256.88074457  .00026873  00000-0  69866-2 0  9997
2 25804  64.8803 139.4444 3581349  53.0506 334.7740  8.02931660636548

Track SL-12 DEB in real time with AllMySat

Download on the App Store